Lexington Weather

Lexington, Massachusetts, USA

34°F
4/16/2021 11:08am 
  • Lexington Conditions: Light snow, Mist, Overcast
  • Temperature: 34.0°F / 1.1°CWarmer 0.2°F than last hour.
  • Dew Point: 32.7°FIncreased 0.2°Fsince last hour.
  • Relative Humidity: 95
  • Wind: Wind from N N Calm, 10-min avg: 2 mph, gust: 4 mph
  • Barometer: 29.46 inFalling 0.04  inHg/hr Falling Slowly
  • Visibility: 1 mile
  • Snow Today: 1.7 in
  •   

Regional Weather Roundup
for Boston / Norton, MA

        
000
ASUS41 KBOX 100904
RWRBOX

REGIONAL WEATHER ROUNDUP
NATIONAL WEATHER SERVICE BOSTON/NORTON MA
500 AM EDT SAT APR 10 2021

NOTE:  "FAIR" INDICATES FEW OR NO CLOUDS BELOW 12,000 FEET WITH NO 
SIGNIFICANT WEATHER AND/OR OBSTRUCTIONS TO VISIBILITY.

MAZALL-101000-
EASTERN MASSACHUSETTS
  
CITY           SKY/WX    TMP DP  RH WIND       PRES   REMARKS
BOSTON         MOCLDY    48  42  80 SW8       30.04F                  
BEVERLY        NOT AVBL                                               
LAWRENCE       CLEAR     47  42  83 S5        30.03F                  
BEDFORD        CLEAR     46  42  86 SW3       30.02F                  
BLUE HILL        N/A     44  42  93 SW14      30.02S                  
NORWOOD        MOCLDY    45  41  86 SE3       30.04F                  
MARSHFIELD     CLOUDY    45  45 100 SW5       30.04S                  
PLYMOUTH       CLOUDY    43  42  97 SW10      30.05S FOG              
TAUNTON        CLOUDY    45  43  93 S3        30.05F                  
NEW BEDFORD    CLOUDY    45  44  97 SW6       30.06F                  
$$

MAZALL-101000-
CAPE COD AND THE ISLANDS
  
CITY           SKY/WX    TMP DP  RH WIND       PRES   REMARKS
FALMOUTH       FOG       43  43 100 W9        30.07S VSB 1/2          
HYANNIS        CLOUDY    44  43  96 SW3       30.05S FOG              
CHATHAM        FOG       43  42  97 SW5       30.07F VSB 3/4          
PROVINCETOWN   FOG       42  41  96 S9          N/A  VSB 1/4          
NANTUCKET      FOG       40  40 100 SW8       30.07S VSB 1/2          
MARTHAS VNYRD  CLOUDY    42  42 100 CALM      30.07F                  
$$
 
MAZALL-101000-
CENTRAL AND WESTERN MASSACHUSETTS
  
CITY           SKY/WX    TMP DP  RH WIND       PRES   REMARKS
WORCESTER      CLOUDY    52  40  63 W10       30.02F                  
FITCHBURG      CLOUDY    54  44  69 VRB3      30.02F                  
ORANGE         CLOUDY    50  48  93 SW3       30.04F                  
SPRINGFIELD    MOCLDY    49  43  79 S3        30.03F                  
WESTFIELD      CLOUDY    52  44  74 SE6       30.03F                  
NORTH ADAMS    CLEAR     46  40  79 CALM      30.02F                  
PITTSFIELD     PTCLDY    47  40  76 CALM      30.01F                  
$$
 
RIZALL-101000-
RHODE ISLAND
  
CITY           SKY/WX    TMP DP  RH WIND       PRES   REMARKS
PROVIDENCE     CLOUDY    46  44  93 S5        30.07S                  
NEWPORT        CLOUDY    45  44  97 CALM      30.06F                  
BLOCK ISLAND   CLOUDY    44  44 100 SW8       30.09S FOG              
SMITHFIELD     CLOUDY    45  45 100 SW5       30.05F                  
WESTERLY       CLOUDY    44  44 100 SW6       30.07F FOG              
$$
 
CTZALL-101000-
CONNECTICUT
  
CITY           SKY/WX    TMP DP  RH WIND       PRES   REMARKS
BRADLEY INTL   MOCLDY    51  43  74 S10       30.03F                  
HARTFORD       CLOUDY    50  44  80 S5        30.05F                  
BRIDGEPORT     CLOUDY    49  45  86 SW6       30.07F                  
DANBURY        MOCLDY    51  44  77 SW3       30.07F                  
GROTON         MOCLDY    45  44  97 CALM      30.07F                  
NEW HAVEN      CLOUDY    49  46  90 SW5       30.07F                  
CHESTER        CLOUDY    46  46 100 CALM      30.06F                  
MERIDEN        CLOUDY    48  43  82 S6        30.06F                  
WILLIMANTIC    CLOUDY    48  43  82 CALM      30.07S                  
OXFORD         CLOUDY    48  48 100 SW3       30.06F                  
$$

MEZ002-015-021-024-NHZ003-005-008-011-012-014-VTZ005-008-101000-
NORTHERN NEW ENGLAND
  
CITY           SKY/WX    TMP DP  RH WIND       PRES   REMARKS
PORTLAND ME    CLEAR     40  39  97 CALM      30.01F                  
BANGOR ME      CLOUDY    43  41  93 CALM      30.00F                  
CONCORD NH     CLEAR     42  38  85 CALM      30.02S                  
MANCHESTER NH  MOCLDY    47  41  80 CALM      30.00F                  
NASHUA NH      CLEAR     43  43 100 CALM      30.02F                  
PORTSMOUTH NH  MOCLDY    41  40  95 CALM      30.02F                  
JAFFREY NH     CLOUDY    51  44  77 S5        30.03F                  
KEENE NH       LGT RAIN  51  47  86 CALM      30.03F                  
BURLINGTON VT  CLOUDY    61  43  51 SW10      29.97S                  
MT. WASHINGTON NOT AVBL                                               
$$

NYZ052-076-101000-
EASTERN NEW YORK
  
CITY           SKY/WX    TMP DP  RH WIND       PRES   REMARKS
ALBANY         PTCLDY    50  43  77 SE5       30.02F                  
NEW YORK CITY  CLOUDY    51  46  83 S5        30.06F                  
$$
 
ANZALL-101000-
MARINE OBSERVATIONS
  
STATION/POSITION TIME  TEMP    WIND        PRES    VSBY  WAVE
                       AIR SEA DIR/SP/G                  HT/PER
                 (UTC) (F)     (DEG/KT/KT) (MB)    (MI)  (FT/S)
BOSTON BUOY      0840   45 44  200/  6/  6 1017.7F
BUZZARDS BAY     0800          250/ 14/ 15 1019.6F
NANTUCKET SOUND  0840      46                N/A
MASS BAY-STELLWA 0804   46     210/  8/ 10 1016.4R  1 7/8  4/11
ISLE OF SHOALS   0800   49     210/  8/  8 1016.4S
S OF BLOCK IS    0826      46                N/A           3/11
$$

......................KEY.........................
  SKY/WX - SKY CONDITION/PRESENT WEATHER
  TMP    - TEMPERATURE IN FAHRENHEIT
  DWPT   - DEWPOINT IN FAHRENHEIT
  RH     - RELATIVE HUMIDITY IN PERCENT
  WIND   - DIRECTION AND SPEED IN MPH
  PRES   - MEAN SEA LEVEL PRESSURE IN INCHES OF HG
  WCI    - WIND CHILL INDEX
  VSB    - VISIBILITY IN MILES
  HX     - HEAT INDEX
  TC     - TEMPERATURE IN CELSIUS
  VRB    - VARIABLE WIND DIRECTION
  N/A    - NOT AVAILABLE
  
      

Other recent Regional Weather Roundups

Fri Apr 16, 10:05am

Fri Apr 16, 9:04am

Fri Apr 16, 8:04am

Fri Apr 16, 7:04am

Fri Apr 16, 6:04am

Fri Apr 16, 5:04am

Fri Apr 16, 4:04am

Fri Apr 16, 3:04am

Fri Apr 16, 2:04am

Fri Apr 16, 1:04am

Fri Apr 16, 12:04am

Thu Apr 15, 11:05pm

Thu Apr 15, 10:04pm

Thu Apr 15, 9:04pm

Thu Apr 15, 8:04pm

Thu Apr 15, 7:05pm

Thu Apr 15, 6:04pm

Thu Apr 15, 5:05pm

Thu Apr 15, 4:04pm

Thu Apr 15, 3:05pm

Thu Apr 15, 2:04pm

Thu Apr 15, 1:05pm

Thu Apr 15, 12:04pm

Thu Apr 15, 11:04am

Thu Apr 15, 10:05am

Thu Apr 15, 9:04am

Thu Apr 15, 8:04am

Thu Apr 15, 7:04am

Thu Apr 15, 6:04am

Thu Apr 15, 5:04am

Thu Apr 15, 4:04am

Thu Apr 15, 3:04am

Thu Apr 15, 2:04am

Thu Apr 15, 1:04am

Thu Apr 15, 12:04am

Wed Apr 14, 11:04pm

Wed Apr 14, 10:04pm

Wed Apr 14, 9:04pm

Wed Apr 14, 8:04pm

Wed Apr 14, 7:04pm

Wed Apr 14, 6:04pm

Wed Apr 14, 5:05pm

Wed Apr 14, 4:04pm

Wed Apr 14, 3:05pm

Wed Apr 14, 2:04pm

Wed Apr 14, 1:05pm

Wed Apr 14, 12:04pm

Wed Apr 14, 11:04am

Wed Apr 14, 10:04am

Wed Apr 14, 9:04am

Wed Apr 14, 8:04am

Wed Apr 14, 7:04am

Wed Apr 14, 6:04am

Wed Apr 14, 5:04am

Wed Apr 14, 4:04am

Wed Apr 14, 3:04am

Wed Apr 14, 2:04am

Wed Apr 14, 1:04am

Wed Apr 14, 12:04am

Tue Apr 13, 11:04pm

Tue Apr 13, 10:05pm

Tue Apr 13, 9:05pm

Tue Apr 13, 8:05pm

Tue Apr 13, 7:04pm

Tue Apr 13, 6:04pm

Tue Apr 13, 5:05pm

Tue Apr 13, 4:04pm

Tue Apr 13, 3:04pm

Tue Apr 13, 2:05pm

Tue Apr 13, 1:04pm

Tue Apr 13, 12:05pm

Tue Apr 13, 11:05am

Tue Apr 13, 10:04am

Tue Apr 13, 9:04am

Tue Apr 13, 8:04am

Tue Apr 13, 7:04am

Tue Apr 13, 6:04am

Tue Apr 13, 5:04am

Tue Apr 13, 4:04am

Tue Apr 13, 3:04am

Tue Apr 13, 2:04am

Tue Apr 13, 1:04am

Tue Apr 13, 12:05am

Mon Apr 12, 11:04pm

Mon Apr 12, 10:04pm

Mon Apr 12, 9:04pm

Mon Apr 12, 8:04pm

Mon Apr 12, 7:05pm

Mon Apr 12, 6:04pm

Mon Apr 12, 5:04pm

Mon Apr 12, 4:04pm

Mon Apr 12, 3:05pm

Mon Apr 12, 2:04pm

Mon Apr 12, 1:05pm

Mon Apr 12, 12:04pm

Mon Apr 12, 11:04am

Mon Apr 12, 10:04am

Mon Apr 12, 9:04am

Mon Apr 12, 8:04am

Mon Apr 12, 7:04am

Mon Apr 12, 6:04am

Mon Apr 12, 5:04am

Mon Apr 12, 4:04am

Mon Apr 12, 3:04am

Mon Apr 12, 2:04am

Mon Apr 12, 1:05am

Mon Apr 12, 12:04am

Sun Apr 11, 11:04pm

Sun Apr 11, 10:04pm

Sun Apr 11, 9:04pm

Sun Apr 11, 8:04pm

Sun Apr 11, 7:04pm

Sun Apr 11, 6:05pm

Sun Apr 11, 5:05pm

Sun Apr 11, 4:04pm

Sun Apr 11, 3:05pm

Sun Apr 11, 2:05pm

Sun Apr 11, 1:05pm

Sun Apr 11, 12:04pm

Sun Apr 11, 11:05am

Sun Apr 11, 10:05am

Sun Apr 11, 9:04am

Sun Apr 11, 8:04am

Sun Apr 11, 7:04am

Sun Apr 11, 6:04am

Sun Apr 11, 5:04am

Sun Apr 11, 4:04am

Sun Apr 11, 3:04am

Sun Apr 11, 2:04am

Sun Apr 11, 1:05am

Sun Apr 11, 12:04am

Sat Apr 10, 11:05pm

Sat Apr 10, 10:04pm

Sat Apr 10, 9:04pm

Sat Apr 10, 8:04pm

Sat Apr 10, 7:05pm

Sat Apr 10, 6:04pm

Sat Apr 10, 5:04pm

Sat Apr 10, 4:04pm

Sat Apr 10, 3:04pm

Sat Apr 10, 2:05pm

Sat Apr 10, 1:04pm

Sat Apr 10, 12:04pm

Sat Apr 10, 11:04am

Sat Apr 10, 10:04am

Sat Apr 10, 9:04am

Sat Apr 10, 8:04am

Sat Apr 10, 7:04am

Sat Apr 10, 6:04am

Sat Apr 10, 4:04am

Sat Apr 10, 3:04am

Sat Apr 10, 2:04am

Sat Apr 10, 1:05am

Sat Apr 10, 12:04am

Fri Apr 9, 11:04pm

Fri Apr 9, 10:05pm

Fri Apr 9, 9:04pm

Fri Apr 9, 8:05pm

Fri Apr 9, 7:05pm

Fri Apr 9, 6:04pm

Fri Apr 9, 5:04pm

Fri Apr 9, 4:05pm

Fri Apr 9, 3:05pm

Fri Apr 9, 2:04pm

Fri Apr 9, 1:04pm

Fri Apr 9, 12:04pm

Fri Apr 9, 11:05am

Meta data:

ID: 6087fca6-6223-4fb2-ae4b-623cf3708e9d
Link: https://api.weather.gov/products/6087fca6-6223-4fb2-ae4b-623cf3708e9d